ONEWEB-0090, 45427

Orbit data source: Space-Track

ONEWEB-0090, 45427 is a payload satellite owned by One Web (UK) in LEO that was launched on Sat, 21 Mar 2020 UTC via a SOYUZ-2-1B launch vehicle from the Tyuratam Missile And Space Complex (TTMTR). Payload-class satellites include a variety of spacecraft equipped with specific instruments for various scientific and technological missions. These include communications satellites like Starlink; space stations such as the ISS; scientific satellites like the Hubble; Earth observation satellites from companies like Planet Labs, Umbra, and HawkEye 360; GPS; miniature CubeSats for education and research; and military/defense satellites.

Loading next visibility...
Identifier
45427, 2020-020D
Orbit
LEO
Last TLE update
14 hours ago
Origin
Manufacturer
One Web
Mission
Operational Commercial Communications
Bus & Motor
ARROW, Unknown motor
Mass
148 kg wet, ~140 kg dry
Launch date (UTC)
2020-03-21 (5 years ago)
Launch vehicle
SOYUZ-2-1B
Launch site
Tyuratam Missile And Space Complex (TTMTR)
Object type
Payload
Rocket body
Debris
Shape & HBR
Trap Box + 2 Pan, 5 m
Radar Cross Section
2.957 m², Large (>1 m²)

Expand to show TLE details & history

TLE from 14 hours ago
0 ONEWEB-0090
1 45427U 20020D   25181.78988527 -.00000159  00000-0 -48558-3 0  9997
2 45427  87.8844  91.1047 0001970  76.7522 283.3826 13.11418226256612
Epoch: 2025-06-30T18:57Z
TLE epoch observation values (Epoch: 2025-06-30T18:57:26.087Z)
Latitude
0.00003°
Longitude
-112.34864°
Altitude
1,220.221 km
Speed
7.244 km/s
True Right ascension
06h 04m 25s
True Declination
0° 00' 00"
Sunlit
Object was in daylight at epoch
Visualization orbit readout
Latitude
-64.3537°
Longitude
71.92519°
Altitude
1,243.785 km
Speed
7.232 km/s
Apparent Right ascension
11h 22m 07s
Apparent Declination
-75° 17' 49"
Sunlit
Object is in full shadow
Visualization observer readout
Local Sidereal Time
20:39:13
Azimuth
194.99° SSW
Elevation
-50.191°
Doppler factor
1
Orbital elements
Apogee altitude
1,216.292 km
Perigee altitude
1,213.3 km
Semi-major axis
7,592.933 km
Eccentricity
0.0002
Inclination
87.8844°
RAAN
91.1047°
Arg. of periapsis
76.7522°
True anomaly
Unknown
Mean anomaly
283.3826°
Eccentric anomaly
Unknown
Mean motion
3.28042 °/min
Orbital period
109.74 mins
BSTAR
-0.00048558
Loading maneuver chart data...
Loading SW <> Apogee altitude chart data...
Loading historical data...
Loading historical data...
Loading historical data...
Loading historical data...
Loading historical data...
Loading historical data...
Loading historical data...

ONEWEB-0090 Visibility forecast

Observer location: undefined°, undefined°

Span
Click to sort rows by Start time (UTC) header in descending order
Start Az.
Max El. time (UTC)
Max El. Az.
Max El.
End time (UTC)
End Az.
10 mins2025-07-01 17:04:00.398Z120.299° SE2025-07-01 17:09:00.398Z71.18° E22.233°2025-07-01 17:14:00.398Z26.985° NE
13 mins2025-07-01 18:52:00.398Z197.41° SSW2025-07-01 18:58:00.398Z277.338° WNW40.87°2025-07-01 19:05:00.398Z353.148° N
7 mins2025-07-02 04:34:00.398Z45.661° ENE2025-07-02 04:37:00.398Z74.59° E18.111°2025-07-02 04:41:00.398Z111.094° ESE
12 mins2025-07-02 06:22:00.398Z354.114° N2025-07-02 06:28:00.398Z243.991° WSW43.637°2025-07-02 06:34:00.398Z190.118° SSW
|